Regional Weather Roundup
Issued by NWS State College, PA

Home | Current Version | Previous Version | Graphics & Text | Print | Product List | Glossary Off
Versions: 1 2 3 4 5 6 7 8 9 10 11 12 13 14 15 16 17 18 19 20 21 22 23 24 25 26 27 28 29 30 31 32 33 34 35 36 37 38 39 40 41 42 43 44 45 46 47 48 49 50

268
ASUS41 KCTP 201710
RWRCTP

REGIONAL WEATHER ROUNDUP
NATIONAL WEATHER SERVICE STATE COLLEGE PA
1200 PM EST MON NOV 20 2017

Note: "fair" indicates few or no clouds below 12,000 feet with no
significant weather and/or obstructions to visibility.

* = STATION THAT DOES NOT REPORT PRECIPITATION /E.G. RAIN...SNOW...ETC/
    THUNDER OR FOG.

PAZ002>004-007>009-013>016-020>023-029>032-201800-
WESTERN PENNSYLVANIA

CITY           SKY/WX    TMP DP  RH WIND       PRES   REMARKS
ERIE           MOSUNNY   38  26  62 S17       30.04F
MEADVILLE      SUNNY     34  25  69 SW12      30.06F
FRANKLIN*      SUNNY     34  23  64 SW12G18   30.07F
NEW CASTLE     FAIR      38  23  55 SW10G16   30.11
BEAVER COUNTY  SUNNY    N/A N/A N/A SW12G17   30.12F
BUTLER*        SUNNY     36  22  56 SW13      30.12F
PITTSBURGH INT MOSUNNY   36  22  56 SW14G21   30.13F
PITTSBURGH     SUNNY     37  21  52 SW12G21   30.13F
INDIANA*       SUNNY     36  25  64 W10G17    30.14F
LATROBE        SUNNY     36  23  60 SW18      30.16F
WASHINGTON CO* SUNNY     37  22  54 SW10      30.18F
$$

PAZ004>006-010>012-017>019-024>028-033>037-041-042-045-046-049>053-201800-
CENTRAL PENNSYLVANIA

CITY           SKY/WX    TMP DP  RH WIND       PRES   REMARKS
BRADFORD       PTSUNNY   32  24  72 SW14G20   29.98F
DUBOIS         SUNNY     31  22  69 SW17      30.04F
CLEARFIELD     MOSUNNY   36  24  62 SW13G21   30.05F
JOHNSTOWN      SUNNY     32  21  64 W15       30.05F
ALTOONA        SUNNY     39  22  50 W14       30.09F
STATE COLLEGE  SUNNY     37  27  65 SW17      30.06F
WILLIAMSPORT   MOSUNNY   42  25  50 W16G25    30.05F
SELINSGROVE    SUNNY     43  26  51 W8        30.09F
FT INDIANTOWN  MOSUNNY   43  22  44 SW9G17    30.09F
CAPITAL CITY   SUNNY     44  22  41 SW10      30.12F
HARRISBURG     MOSUNNY   44  25  47 W9        30.12F
YORK           SUNNY     42  21  43 W12       30.13F
$$

PAZ038>040-043-044-047-048-054-055-060>062-067>071-201800-
EASTERN PENNSYLVANIA

CITY           SKY/WX    TMP DP  RH WIND       PRES   REMARKS
SCRANTON       PTSUNNY   38  25  59 W13G21    30.02F
MOUNT POCONO   NOT AVBL
ALLENTOWN      SUNNY     44  23  43 W17G26    30.06F
QUAKERTOWN*    SUNNY     41  23  48 W8G20     30.07F
READING        MOSUNNY   44  26  49 W18G24    30.09F
LANCASTER      SUNNY     43  25  49 W15       30.11F
COATESVILLE    SUNNY     41  23  48 W14G21    30.11F
POTTSTOWN      MOSUNNY   43  23  45 W10G20    30.11F
BLUE BELL      SUNNY     43  25  49 W12G20    30.10F
DOYLESTOWN     SUNNY     43  22  43 W12G21    30.06F
WILLOW GROVE   NOT AVBL
NORTH PHILA    SUNNY     47  23  38 W15G23    30.10F
PHILADELPHIA   MOSUNNY   45  21  38 W16G23    30.11F
$$




USA.gov is the U.S. government's official web portal to all federal, state and local government web resources and services.